Weather History for Corpus Christi, TX

Change the Weather History Date:

Wednesday, February 6, 2013

  Actual Average Record
Temperature  
Mean Temperature 70 °F 59 °F  
Max Temperature 74 °F 69 °F 85 °F (1951)
Min Temperature 65 °F 49 °F 26 °F (1989)
Degree Days  
Heating Degree Days 0 7  
Month to date heating degree days 4 46  
Since 1 July heating degree days 387 673  
Cooling Degree Days 5 1  
Month to date cooling degree days 22 6  
Year to date cooling degree days 89 36  
Growing Degree Days 18 (Base 50)    
Moisture  
Dew Point 65 °F    
Average Humidity 88    
Maximum Humidity 97    
Minimum Humidity 78    
Precipitation  
Precipitation 0.40 in 0.06 in 1.97 in (1967)
Month to date precipitation 0.40 0.34  
Year to date precipitation 1.65 1.88  
Snow  
Snow 0.00 in - - ()
Month to date snowfall 0.0  
Since 1 July snowfall 0.0  
Snow Depth 0.00 in    
Sea Level Pressure  
Sea Level Pressure 29.90 in    
Wind  
Wind Speed 14 mph (East)    
Max Wind Speed 23 mph    
Max Gust Speed 28 mph    
Visibility 6 miles    
Events Fog , Rain , Thunderstorm    
T = Trace of Precipitation, MM = Missing Value Source: NWS Daily Summary

Daily Weather History Graph

Daily Weather History Graph

Search for Another Location

Airport:

Trip Planner

Search our weather history database for the weather conditions in past years. The results will help you decide how hot, cold, wet, or windy it might be!

Date:

Astronomy

Feb. 06, 2013 Rise Set
Actual Time 7:13 AM CST 6:14 PM CST
Civil Twilight 6:49 AM CST 6:39 PM CST
Nautical Twilight 6:21 AM CST 7:07 PM CST
Astronomical Twilight 5:54 AM CST 7:34 PM CST
Moon 3:49 AM CST (2/6) 2:43 PM CST (2/6)
Length of Visible Light 11h 49m
Length of Day
11h 01m
Waning Crescent, 17% of the Moon is Illuminated
Feb 6
Waning Crescent
Feb 10
New
Feb 17
First Quarter
Feb 25
Full
Mar 4
Last Quarter

Hourly Weather History & Observations

Time (CST) Temp. Dew Point Humidity Pressure Visibility Wind Dir Wind Speed Gust Speed Precip Events Conditions
12:08 AM 71.6 °F 66.2 °F 83% 29.95 in 9.0 mi SSE 9.2 mph - 0.00 in Rain Light Rain
12:26 AM 71.6 °F 68.0 °F 88% 29.97 in 9.0 mi South 11.5 mph - 0.00 in Rain , Thunderstorm Light Thunderstorms and Rain
12:51 AM 72.0 °F 68.0 °F 87% 30.01 in 5.0 mi SW 10.4 mph - 0.02 in Rain , Thunderstorm Thunderstorms and Rain
1:46 AM 71.6 °F 69.8 °F 94% 29.95 in 5.0 mi SE 8.1 mph - 0.05 in   Overcast
1:51 AM 71.1 °F 69.1 °F 93% 29.94 in 5.0 mi SE 5.8 mph - 0.05 in   Overcast
2:47 AM 71.6 °F 69.8 °F 94% 29.94 in 6.0 mi East 6.9 mph - N/A   Overcast
2:51 AM 72.0 °F 69.1 °F 91% 29.93 in 6.0 mi East 5.8 mph - N/A   Overcast
3:51 AM 70.0 °F 68.0 °F 93% 29.91 in 4.0 mi ESE 10.4 mph - N/A   Mostly Cloudy
4:31 AM 69.8 °F 68.0 °F 94% 29.93 in 4.0 mi ESE 12.7 mph - N/A   Overcast
4:44 AM 69.8 °F 68.0 °F 94% 29.93 in 1.2 mi ESE 10.4 mph - N/A   Overcast
4:51 AM 70.0 °F 68.0 °F 93% 29.93 in 0.5 mi ESE 10.4 mph - N/A Fog Fog
5:46 AM 69.8 °F 68.0 °F 94% 29.95 in 1.0 mi ESE 6.9 mph - N/A   Overcast
5:51 AM 70.0 °F 68.0 °F 93% 29.94 in 1.5 mi ESE 5.8 mph - N/A   Overcast
5:58 AM 69.8 °F 68.0 °F 94% 29.95 in 2.0 mi ESE 4.6 mph - N/A   Overcast
6:48 AM 69.8 °F 68.0 °F 94% 29.93 in 3.0 mi East 11.5 mph - 0.00 in Rain Light Rain
6:51 AM 70.0 °F 68.0 °F 93% 29.93 in 3.0 mi East 11.5 mph - 0.00 in Rain Light Rain
7:11 AM 69.8 °F 68.0 °F 94% 29.93 in 2.5 mi East 13.8 mph - 0.00 in   Overcast
7:51 AM 70.0 °F 68.0 °F 93% 29.93 in 2.5 mi ESE 13.8 mph - 0.00 in Rain Light Rain
8:03 AM 71.6 °F 68.0 °F 88% 29.92 in 3.0 mi ESE 12.7 mph - 0.00 in   Overcast
8:28 AM 71.6 °F 68.0 °F 88% 29.92 in 3.0 mi ESE 13.8 mph - 0.00 in   Overcast
8:38 AM 71.6 °F 69.8 °F 94% 29.91 in 3.0 mi ESE 12.7 mph - 0.00 in Rain Light Rain
8:51 AM 72.0 °F 69.1 °F 91% 29.91 in 3.0 mi SE 12.7 mph - 0.00 in Rain Light Rain
9:38 AM 71.6 °F 69.8 °F 94% 29.93 in 4.0 mi SSE 11.5 mph - 0.00 in   Overcast
9:51 AM 72.0 °F 69.1 °F 91% 29.93 in 4.0 mi SE 10.4 mph - 0.00 in Rain Light Rain
10:51 AM 70.0 °F 64.9 °F 84% 29.94 in 10.0 mi North 11.5 mph - 0.01 in   Overcast
11:09 AM 66.2 °F 62.6 °F 88% 29.94 in 10.0 mi North 16.1 mph 20.7 mph N/A   Overcast
11:51 AM 66.0 °F 63.0 °F 90% 29.90 in 7.0 mi NNE 17.3 mph - 0.01 in Rain Rain
12:28 PM 66.2 °F 62.6 °F 88% 29.90 in 3.0 mi NNE 17.3 mph - 0.11 in Rain Heavy Rain
12:38 PM 66.2 °F 62.6 °F 88% 29.90 in 1.5 mi NNE 13.8 mph - 0.16 in Rain Heavy Rain
12:51 PM 66.0 °F 63.0 °F 90% 29.88 in 1.5 mi NE 16.1 mph - 0.28 in Rain Heavy Rain
12:58 PM 66.2 °F 62.6 °F 88% 29.87 in 2.0 mi NE 16.1 mph - 0.02 in Rain Heavy Rain
1:16 PM 69.8 °F 64.4 °F 83% 29.87 in 10.0 mi NE 16.1 mph - 0.03 in Rain Light Rain
1:45 PM 66.2 °F 62.6 °F 88% 29.87 in 10.0 mi NE 19.6 mph - 0.03 in   Mostly Cloudy
1:51 PM 66.9 °F 63.0 °F 87% 29.86 in 10.0 mi NE 15.0 mph - 0.03 in   Mostly Cloudy
2:51 PM 70.0 °F 62.1 °F 76% 29.84 in 10.0 mi NE 20.7 mph - N/A   Mostly Cloudy
3:51 PM 69.1 °F 62.1 °F 78% 29.82 in 10.0 mi NE 20.7 mph - N/A   Mostly Cloudy
4:45 PM 69.8 °F 62.6 °F 78% 29.82 in 10.0 mi ENE 16.1 mph - N/A   Mostly Cloudy
4:51 PM 70.0 °F 63.0 °F 78% 29.82 in 10.0 mi NE 16.1 mph - N/A   Mostly Cloudy
5:12 PM 69.8 °F 62.6 °F 78% 29.83 in 10.0 mi ENE 16.1 mph - N/A   Overcast
5:51 PM 69.1 °F 63.0 °F 81% 29.85 in 10.0 mi ENE 19.6 mph 27.6 mph N/A   Overcast
5:59 PM 69.8 °F 62.6 °F 78% 29.85 in 10.0 mi ENE 19.6 mph 24.2 mph N/A   Mostly Cloudy
6:51 PM 66.9 °F 61.0 °F 81% 29.87 in 10.0 mi ENE 16.1 mph - N/A   Scattered Clouds
7:37 PM 66.2 °F 60.8 °F 83% 29.88 in 10.0 mi East 18.4 mph 24.2 mph N/A   Mostly Cloudy
7:51 PM 66.0 °F 61.0 °F 84% 29.88 in 10.0 mi ENE 19.6 mph - N/A   Mostly Cloudy
8:14 PM 66.2 °F 60.8 °F 83% 29.89 in 10.0 mi ENE 19.6 mph - N/A   Scattered Clouds
8:49 PM 66.2 °F 60.8 °F 83% 29.89 in 10.0 mi ENE 17.3 mph - N/A   Mostly Cloudy
8:51 PM 66.0 °F 61.0 °F 84% 29.89 in 10.0 mi ENE 16.1 mph - N/A   Mostly Cloudy
9:51 PM 64.9 °F 61.0 °F 87% 29.90 in 10.0 mi East 16.1 mph - N/A   Overcast
10:36 PM 64.4 °F 60.8 °F 88% 29.91 in 10.0 mi East 11.5 mph - N/A   Scattered Clouds
10:51 PM 64.9 °F 60.1 °F 84% 29.91 in 10.0 mi ENE 12.7 mph - N/A   Partly Cloudy
11:51 PM 64.9 °F 60.1 °F 84% 29.91 in 10.0 mi East 13.8 mph - N/A   Partly Cloudy